Location: Acton
(51.4942°N, 0.2232°W)
Time: 15:31:12
(UTC+00:00)

MetOp-A - Pass Details

Date: 18 September 2020
Orbit: 820 x 821 km, 98.5° (Epoch: 28 October)

Event Time Altitude Azimuth Distance (km) Brightness Sun altitude
Exits shadow 20:03:46 10° 175° (S) 2,398 6.3 -18.2°
Maximum altitude 20:09:03 67° 257° (WSW) 894 4.4 -18.9°
Drops below altitude 10° 20:14:24 10° 341° (NNW) 2,431 7.3 -19.7°
Sets 20:16:48 0° 344° (NNW) 3,368 8.0 -20.0°
